INTELSAT 28 (IS-28)

Last updated on Mon Oct 14 2024 00:02:38 GMT+0000 (Coordinated Universal Time)

1 37392U 11016A 24287.48448455 .00000154 00000+0 00000+0 0 9996 2 37392 0.2149 90.9690 0003046 119.0367 19.7605 1.00271090 47150
UTC large
Height (km)
Speed (km/s)
/
Latitude / Longitude
Inclination (degrees)
Orbital Period (minutes)
Azimuth
Elevation
Range (km)
Doppler Factor

Next 0 passes for location: London (51.5072 / 0.1276)

Sorry there are no passes over London.